Starlink 31137

operational
NORAD ID: 58686 Int'l Des: 2023-211 Owner: SPXS Country: US Constellation: starlink
LEOCIRCULAR

Starlink 31137について

説明を読み込み中...

リアルタイム位置

3D地球を読み込み中...

次回通過

高度履歴

Altitude vs Time

uPlot chart will show altitude changes over time

軌道要素

1 58686U 23211V 25308.67240948 .00002035 00000-0 83438-4 0 9990
2 58686 43.0059 71.4087 0001659 276.9544 83.1118 15.27585473103341
Epoch: Nov 4, 2025 • Age: 9 hours

現在のステータス

高度 485.8 km
速度 7.62 km/s
衛星直下点 -16.81°S, 15.78°W
打ち上げ日 Dec 29, 2023
運用期間 1.8 years
タイプ internet

技術仕様

分類 Payload
質量 730.00 kg
乾燥質量 700.00 kg
総質量 730.00 kg
長さ 0.30 m
直径 4.10 m
スパン 29.00 m
形状 Box + pan
製造者 SPXS
バスタイプ Starlink V2M
フェーズステータス In Orbit
所有者/国 SPXS/US

大規模コンステレーション

Loading constellations...